Weather History for Lyndonville, VT

Change the Weather History Date:

Sunday, January 19, 2014

  Actual Average (K1V4) Record (K1V4)
Temperature  
Mean Temperature 25 °F 16 °F  
Max Temperature 28 °F 27 °F 60 °F (1996)
Min Temperature 22 °F 6 °F -34 °F (1904)
Degree Days  
Heating Degree Days 40 49  
Month to date heating degree days 914  
Since 1 July heating degree days 3867  
Moisture  
Dew Point 20 °F    
Average Humidity 81    
Maximum Humidity 92    
Minimum Humidity 65    
Precipitation  
Precipitation 0.00 in 0.08 in 0.85 in (1999)
Month to date precipitation 1.52  
Year to date precipitation 1.52  
Sea Level Pressure  
Sea Level Pressure 29.49 in    
Wind  
Wind Speed 4 mph (SW)    
Max Wind Speed 15 mph    
Max Gust Speed 23 mph    
Visibility 5 miles    
Events Snow    
T = Trace of Precipitation, MM = Missing Value Source: NWS Daily Summary

Daily Weather History Graph

Daily Weather History Graph

Search for Another Location

Airport:

Trip Planner

Search our weather history database for the weather conditions in past years. The results will help you decide how hot, cold, wet, or windy it might be!

Date:

Astronomy

Jan. 19, 2014 Rise Set
Actual Time 7:18 AM EST 4:39 PM EST
Civil Twilight 6:46 AM EST 5:11 PM EST
Nautical Twilight 6:10 AM EST 5:47 PM EST
Astronomical Twilight 5:36 AM EST 6:21 PM EST
Moon 8:25 PM EST (1/19) 8:38 AM EST (1/19)
Length of Visible Light 10h 24m
Length of Day
9h 20m
Waning Gibbous, 89% of the Moon is Illuminated
Jan 19
Waning Gibbous
Jan 24
Last Quarter
Jan 30
New
Feb 6
First Quarter
Feb 14
Full

Hourly Weather History & Observations

Time (EST) Temp. Windchill Dew Point Humidity Pressure Visibility Wind Dir Wind Speed Gust Speed Precip Events Conditions
12:15 AM 27.7 °F 22.4 °F 21.2 °F 77% 29.65 in 10.0 mi WNW 4.6 mph - N/A   Overcast
12:35 AM 28.0 °F 24.2 °F 21.7 °F 77% 29.65 in 10.0 mi WNW 3.5 mph - N/A   Overcast
12:55 AM 28.4 °F 23.3 °F 22.6 °F 79% 29.65 in 10.0 mi NW 4.6 mph - N/A   Overcast
1:15 AM 28.4 °F 23.3 °F 22.6 °F 79% 29.65 in 7.0 mi WNW 4.6 mph - N/A Snow Light Snow
1:35 AM 28.2 °F 24.4 °F 23.0 °F 81% 29.65 in 3.0 mi WNW 3.5 mph - N/A Snow Light Snow
1:55 AM 27.7 °F - 23.9 °F 86% 29.65 in 2.0 mi Calm Calm - N/A Snow Light Snow
2:15 AM 27.5 °F - 24.1 °F 87% 29.66 in 1.5 mi Calm Calm - N/A Snow Light Snow
2:35 AM 26.6 °F - 23.0 °F 86% 29.66 in 1.8 mi Calm Calm - N/A Snow Light Snow
2:55 AM 26.6 °F - 23.5 °F 88% 29.66 in 2.0 mi Calm Calm - N/A Snow Light Snow
3:15 AM 26.2 °F - 23.4 °F 89% 29.65 in 4.0 mi Calm Calm - N/A Snow Light Snow
3:35 AM 25.7 °F - 23.0 °F 89% 29.65 in 2.5 mi Calm Calm - N/A Snow Light Snow
3:55 AM 25.7 °F - 23.2 °F 90% 29.64 in 2.5 mi Calm Calm - N/A Snow Light Snow
4:15 AM 25.7 °F - 23.0 °F 89% 29.64 in 1.8 mi Calm Calm - N/A Snow Light Snow
4:35 AM 25.5 °F - 23.0 °F 90% 29.64 in 1.2 mi Calm Calm - N/A Snow Light Snow
4:55 AM 25.5 °F - 23.2 °F 91% 29.63 in 2.0 mi Calm Calm - N/A Snow Light Snow
5:15 AM 25.3 °F - 22.8 °F 90% 29.63 in 3.0 mi Calm Calm - N/A Snow Light Snow
5:35 AM 25.5 °F - 23.0 °F 90% 29.62 in 3.0 mi Calm Calm - N/A Snow Light Snow
5:55 AM 26.1 °F - 23.7 °F 91% 29.62 in 2.5 mi Calm Calm - N/A Snow Light Snow
6:15 AM 26.2 °F 22.1 °F 23.9 °F 91% 29.62 in 2.0 mi South 3.5 mph - N/A Snow Light Snow
6:35 AM 26.2 °F 22.1 °F 23.7 °F 90% 29.61 in 2.0 mi SSE 3.5 mph - N/A Snow Light Snow
6:55 AM 26.2 °F - 23.9 °F 91% 29.61 in 2.0 mi Calm Calm - N/A Snow Light Snow
7:15 AM 26.2 °F 22.1 °F 23.9 °F 91% 29.60 in 2.0 mi South 3.5 mph - N/A Snow Light Snow
7:35 AM 26.1 °F - 23.7 °F 91% 29.58 in 2.0 mi Calm Calm - N/A Snow Light Snow
7:55 AM 25.7 °F - 23.5 °F 92% 29.57 in 2.0 mi Calm Calm - N/A Snow Light Snow
8:15 AM 26.1 °F - 23.7 °F 91% 29.56 in 1.2 mi Calm Calm - N/A Snow Light Snow
8:35 AM 26.2 °F - 23.7 °F 90% 29.56 in 0.8 mi Calm Calm - N/A Snow Light Snow
8:55 AM 25.3 °F 18.5 °F 22.3 °F 88% 29.56 in 1.0 mi WNW 5.8 mph - N/A Snow Light Snow
9:15 AM 25.2 °F 18.3 °F 21.9 °F 87% 29.55 in 0.8 mi West 5.8 mph - N/A Snow Snow
9:35 AM 25.3 °F 18.5 °F 22.1 °F 87% 29.54 in 0.5 mi West 5.8 mph - N/A Snow Snow
9:55 AM 25.5 °F 21.3 °F 21.9 °F 86% 29.53 in 0.5 mi West 3.5 mph - N/A Snow Light Snow
10:15 AM 25.7 °F 21.5 °F 22.1 °F 86% 29.52 in 0.5 mi West 3.5 mph - N/A Snow Snow
10:35 AM 25.9 °F - 22.1 °F 86% 29.51 in 0.5 mi Calm Calm - N/A Snow Snow
10:55 AM 26.1 °F - 22.1 °F 85% 29.49 in 0.8 mi Calm Calm - N/A Snow Light Snow
11:15 AM 26.6 °F - 23.0 °F 86% 29.48 in 0.5 mi Calm Calm - N/A Snow Snow
11:35 AM 26.8 °F 20.2 °F 23.4 °F 87% 29.47 in 1.2 mi SW 5.8 mph - N/A Snow Light Snow
11:55 AM 27.3 °F 20.9 °F 22.1 °F 81% 29.45 in 7.0 mi WSW 5.8 mph - N/A Snow Light Snow
12:15 PM 26.8 °F 19.3 °F 21.9 °F 82% 29.43 in 2.0 mi South 6.9 mph - N/A Snow Light Snow
12:35 PM 26.6 °F 20.0 °F 21.7 °F 82% 29.42 in 4.0 mi SSW 5.8 mph - N/A Snow Light Snow
12:55 PM 26.6 °F 17.5 °F 21.0 °F 79% 29.40 in 5.0 mi SSW 9.2 mph - N/A Snow Light Snow
1:15 PM 26.6 °F 18.2 °F 19.9 °F 76% 29.40 in 7.0 mi SSW 8.1 mph - N/A Snow Light Snow
1:35 PM 26.4 °F 16.6 °F 17.2 °F 68% 29.39 in 10.0 mi SW 10.4 mph 16.1 mph N/A   Overcast
1:55 PM 26.2 °F 17.1 °F 17.1 °F 68% 29.39 in 10.0 mi SSW 9.2 mph - N/A   Overcast
2:15 PM 26.1 °F 16.8 °F 16.5 °F 67% 29.38 in 7.0 mi SSW 9.2 mph 17.3 mph N/A   Overcast
2:35 PM 25.7 °F 15.1 °F 16.2 °F 67% 29.37 in 10.0 mi SSW 11.5 mph 21.9 mph N/A   Overcast
2:55 PM 25.7 °F 15.7 °F 16.2 °F 67% 29.37 in 10.0 mi SSW 10.4 mph 18.4 mph N/A   Overcast
3:15 PM 25.3 °F 14.7 °F 15.6 °F 67% 29.38 in 10.0 mi SW 11.5 mph 18.4 mph N/A   Overcast
3:35 PM 25.3 °F 14.7 °F 16.0 °F 68% 29.38 in 10.0 mi SSW 11.5 mph 17.3 mph N/A Snow Light Snow
3:55 PM 25.0 °F 12.6 °F 14.5 °F 65% 29.38 in 10.0 mi SSW 15.0 mph 23.0 mph N/A   Overcast
4:15 PM 24.8 °F 14.6 °F 14.9 °F 66% 29.38 in 10.0 mi SSW 10.4 mph 18.4 mph N/A   Overcast
4:35 PM 23.9 °F 11.7 °F 15.1 °F 69% 29.38 in 10.0 mi SSW 13.8 mph 17.3 mph N/A   Overcast
4:55 PM 23.5 °F 12.4 °F 15.8 °F 72% 29.38 in 5.0 mi SW 11.5 mph 18.4 mph N/A Snow Light Snow
5:15 PM 23.2 °F 13.3 °F 16.3 °F 75% 29.38 in 5.0 mi SSW 9.2 mph - N/A Snow Light Snow
5:35 PM 23.0 °F 13.1 °F 16.7 °F 77% 29.39 in 4.0 mi SSW 9.2 mph - N/A Snow Light Snow
5:55 PM 22.6 °F 12.6 °F 17.1 °F 79% 29.39 in 4.0 mi SSW 9.2 mph - N/A Snow Light Snow
6:15 PM 22.6 °F 13.4 °F 17.2 °F 80% 29.39 in 4.0 mi SSW 8.1 mph - N/A Snow Light Snow
6:35 PM 22.5 °F 14.1 °F 17.6 °F 82% 29.39 in 4.0 mi SSW 6.9 mph - N/A Snow Light Snow
6:55 PM 22.3 °F 13.9 °F 18.1 °F 84% 29.39 in 5.0 mi South 6.9 mph - N/A Snow Light Snow
7:15 PM 22.1 °F 12.8 °F 18.5 °F 86% 29.39 in 4.0 mi SSW 8.1 mph - N/A Snow Light Snow
7:55 PM 22.3 °F 13.9 °F 18.5 °F 85% 29.37 in 7.0 mi South 6.9 mph - N/A Snow Light Snow
8:15 PM 22.6 °F 14.3 °F 18.1 °F 83% 29.37 in 10.0 mi SSW 6.9 mph - N/A   Overcast
8:35 PM 23.0 °F 13.9 °F 17.8 °F 80% 29.37 in 10.0 mi SSW 8.1 mph - N/A   Overcast
8:55 PM 23.2 °F 13.3 °F 17.6 °F 79% 29.37 in 10.0 mi SSW 9.2 mph - N/A Snow Light Snow
9:15 PM 23.4 °F 15.2 °F 17.6 °F 79% 29.37 in 10.0 mi SSW 6.9 mph - N/A   Overcast
9:35 PM 23.7 °F 14.7 °F 17.6 °F 77% 29.37 in 10.0 mi SSW 8.1 mph - N/A   Overcast
9:55 PM 23.9 °F 16.8 °F 17.6 °F 77% 29.37 in 10.0 mi South 5.8 mph - N/A   Overcast
10:15 PM 23.9 °F 15.0 °F 17.6 °F 77% 29.38 in 7.0 mi South 8.1 mph - N/A Snow Light Snow
10:35 PM 23.9 °F 15.0 °F 18.3 °F 79% 29.38 in 7.0 mi South 8.1 mph - N/A Snow Light Snow
10:55 PM 24.8 °F 15.3 °F 18.5 °F 77% 29.37 in 7.0 mi South 9.2 mph - N/A Snow Light Snow
11:15 PM 25.2 °F 16.5 °F 18.3 °F 75% 29.38 in 7.0 mi South 8.1 mph - N/A Snow Light Snow
11:35 PM 25.3 °F 17.6 °F 18.5 °F 75% 29.37 in 5.0 mi South 6.9 mph - N/A Snow Light Snow
11:55 PM 25.2 °F 15.7 °F 19.0 °F 78% 29.37 in 5.0 mi South 9.2 mph - N/A Snow Light Snow